Flag for Peru Weather past 2 weeks in Arequipa, Arequipa, Peru

Now
50 °F

Passing clouds.


Feels Like: 48 °F
Forecast: 55 / 72 °F
Wind: 5 mph from Northeast

Location: Arequipa Airport

Current Time: Jan 25, 2015 at 5:58:18 AM

Latest Report: Jan 25, 2015 at 5:00 AM


Visibility: N/A

Pressure: 30.24 "Hg

Humidity: 76%

Dew point: 43 °F

Location of ArequipaLocation

Historic Weather in Arequipa — Graph

°F

Arequipa temperature yesterday

Maximum temperature yesterday: 66 °F (at 12:00 PM)
Minimum temperature yesterday: 50 °F (at 1:00 AM)
Average temperature yesterday: 57 °F

Past Weeks' High & Low Weather Summary

 TemperatureHumidityPressure
High73 °F (Jan 10, 1:00 PM)88% (Jan 21, 9:00 PM)30.39 "Hg (Jan 21, 9:00 PM)
Low45 °F (Jan 19, 5:00 AM)13% (Jan 11, 9:00 PM)30.21 "Hg (Jan 11, 4:00 PM)
Average60 °F44%30.30 "Hg
* Reported Jan 10 4:00 AM — Jan 25 4:00 AM, Arequipa, Weather by CustomWeather, © 2014

Note: Actual official high and low records may vary slightly from our data, if they occured in-between our weather recording intervals... More about our weather records

Advertising

Arequipa weather history for previous 24 hours

 ConditionsComfort  
Time TempWeatherWind HumidityBarometerVisibility
4:00 AM
Jan 25
52 °FPassing clouds.5 mph72%30.24 "HgN/A
3:00 AM50 °FPassing clouds.2 mph76%30.24 "HgN/A
2:00 AM52 °FPassing clouds.3 mph72%30.24 "HgN/A
1:00 AM54 °FPassing clouds.3 mph67%30.27 "HgN/A
12:00 AM52 °FPassing clouds.No wind72%30.30 "HgN/A
11:00 PM
Jan 24
54 °FClear.3 mph67%30.30 "Hg10 mi
10:00 PM52 °FClear.7 mph72%30.30 "Hg10 mi
9:00 PM52 °FClear.6 mph72%30.33 "Hg10 mi
8:00 PM52 °FClear.No wind72%30.33 "Hg10 mi
7:00 PM54 °FPassing clouds.7 mph67%30.30 "HgN/A
6:00 PM57 °FScattered clouds.12 mph59%30.30 "HgN/A
5:00 PM59 °FScattered clouds.12 mph55%30.27 "HgN/A
4:00 PM61 °FBroken clouds.8 mph55%30.27 "HgN/A
3:00 PM61 °FPartly sunny.9 mph55%30.27 "HgN/A
2:00 PM63 °FLight rain. Broken clouds.10 mph42%30.30 "HgN/A
1:00 PM64 °FScattered clouds.12 mph40%30.30 "HgN/A
12:00 PM66 °FScattered clouds.13 mph43%30.30 "HgN/A
11:00 AM64 °FPassing clouds.13 mph46%30.30 "HgN/A
10:00 AM64 °FPassing clouds.9 mph49%30.30 "HgN/A
9:00 AM64 °FScattered clouds.6 mph52%30.30 "HgN/A
8:00 AM61 °FScattered clouds.5 mph59%30.30 "HgN/A
7:00 AM59 °FScattered clouds.No wind63%30.30 "HgN/A
6:00 AM50 °FScattered clouds.5 mph82%30.30 "HgN/A
5:00 AM50 °FClear.5 mph82%30.27 "Hg10 mi
Weather by CustomWeather, © 2014

See weather overviewHow to use our weather pages